Dati Storici

Data ora Umidita' aria (%) Temperatura aria (°C) Rad globale (W/m²) Gonioanemometro (°) Tacoanemometro (m/s) Pioggia (mm)
02-07-2020 06:50 95.1 % 21.275 190.635 1.936 0 0
02-07-2020 06:40 94.5 % 21.557 191.77 1.658 0 0
02-07-2020 06:30 93.5 % 21.447 292.573 1.059 0 0
02-07-2020 06:20 93.3 % 21.559 86.298 1.713 0 0
02-07-2020 06:10 94 % 21.735 158.716 -0.005 0 0
02-07-2020 06:00 93.6 % 21.504 308.088 1.715 0 0
02-07-2020 05:50 94.5 % 21.53 34.043 0.068 0 0
02-07-2020 05:40 94.9 % 21.376 321.043 -0.007 0 0
02-07-2020 05:30 94.2 % 21.344 27.092 1.362 0 0
02-07-2020 05:20 92.6 % 21.393 32.902 1.298 0 0
02-07-2020 05:10 91.7 % 21.594 49.648 -0.009 0 0
02-07-2020 05:00 90.8 % 21.602 67.939 -0.007 0 0
02-07-2020 04:50 90.7 % 21.439 290.349 -0.007 0 0
02-07-2020 04:40 89.8 % 21.443 25.137 1.075 0 0
02-07-2020 04:30 88.9 % 21.598 344.622 0.375 0 0
02-07-2020 04:20 87.5 % 21.604 10.424 1.302 0 0
02-07-2020 04:10 87.5 % 21.764 352.146 -0.008 0 0
02-07-2020 04:00 87.1 % 21.851 351.049 1.108 0 0
02-07-2020 03:50 89.1 % 22.001 334.127 1.714 0 0
02-07-2020 03:40 89.8 % 22.092 339.991 0.888 0 0

I dati sono presentati in modo automatico a scopo informativo. In seguito a verifica i dati possono subire modifiche o essere invalidati e non riportati negli archivi definitivi.